AJISAI (EGS)

Last updated on Thu Aug 20 2026 00:02:07 GMT+0000 (Coordinated Universal Time)

1 16908U 86061A 26231.58335769 -.00000086 00000+0 82061-4 0 9990 2 16908 50.0111 312.4569 0011162 342.1158 111.8032 12.44516880488284
UTC large
Height (km)
Speed (km/s)
/
Latitude / Longitude
Inclination (degrees)
Orbital Period (minutes)
Azimuth
Elevation
Range (km)
Doppler Factor

Next 0 passes for location: London (51.5072 / 0.1276)

No passes found over London.
AJISAI (EGS)